[[{"header":{"parameterUnit":"m.s-1","parameterCategory":1,"la1":30.2992,"la2":30.254,"lo1":-89.0895,"lo2":-89.0443,"dy":0.0025,"dx":0.0025,"nx":19,"ny":19,"refTime":"2026-04-20T09:00:00:Z","depth":0,"parameterNumber":2,"parameterNumberName":"U-component_of_WINDS"},"data":[0,0,0,-2.2488,-2.2494,-2.2763,-2.2764,-2.3125,-2.3128,0,0,0,0,0,0,0,0,0,0,0,-2.2415,-2.2418,-2.2488,-2.2495,-2.2763,-2.2764,-2.3125,-2.3129,0,0,0,0,0,0,0,0,0,0,0,-2.2414,-2.2417,-2.242,-2.2496,-2.2763,-2.2764,-2.3124,-2.2916,0,0,0,0,0,0,0,0,0,0,-2.2652,-2.2591,-2.2416,-2.2421,-2.2497,-2.2762,-2.2764,-2.2906,-2.2929,-2.301,0,-2.308,0,-2.3109,-2.3153,-2.3155,0,0,0,-2.2491,-2.2571,-2.2637,-2.2421,-2.25,-2.2762,-2.2641,-2.2918,-2.2945,-2.3041,-2.3085,-2.3098,-2.3115,-2.3156,-2.3158,-2.3626,-2.3628,0,0,-2.2476,-2.2468,-2.2619,-2.2654,-2.2609,-2.2632,-2.2649,-2.2934,-2.2983,-2.3086,-2.3106,-2.3121,-2.3158,-2.3161,-2.3623,-2.3626,0,0,0,-2.2436,-2.2458,-2.2517,-2.264,-2.2686,-2.264,-2.266,-2.2971,-2.299,-2.311,-2.3126,-2.316,-2.3165,-2.3621,-2.3624,-2.3732,0,0,0,-2.2427,-2.2435,-2.251,-2.2509,-2.2681,-2.2831,-2.269,-2.297,-2.3003,-2.3124,-2.3161,-2.3169,-2.3618,-2.3623,-2.3723,-2.3785,0,0,0,-2.2396,-2.2431,-2.2471,-2.2508,-2.2622,-2.2827,-2.2862,-2.2978,-2.3013,-2.3155,-2.317,-2.3616,-2.3622,-2.3716,-2.3773,-2.3906,0,0,0,-2.2361,-2.2566,-2.2473,-2.2708,-2.262,-2.2889,-2.2861,-2.3063,-2.3198,-2.3162,-2.3619,-2.3624,-2.3713,-2.3765,-2.3898,-2.4017,-2.4065,0,0,-2.2615,-2.2596,-2.2735,-2.266,-2.2943,-2.2849,-2.315,-2.3283,-2.3306,-2.3519,-2.353,-2.3726,-2.3772,-2.3904,-2.4338,-2.4376,0,0,0,-2.2813,-2.2913,-2.2989,-2.3115,-2.3218,-2.3313,-2.3399,-2.3448,-2.3628,-2.3412,-2.381,-2.3838,-2.3916,-2.3973,-2.4006,-2.4074,-2.365,-2.3649,-2.3649,-2.3164,-2.3178,-2.3408,-2.3455,-2.3577,-2.3663,-2.3765,-2.3846,-2.3828,-2.3922,-2.3986,-2.4246,-2.4313,-2.4338,-2.4409,-2.4049,-2.4049,-2.405,-2.405,-2.3538,-2.3682,-2.3648,-2.386,-2.3876,-2.4056,-2.4147,-2.4127,-2.4299,-2.42,-2.427,-2.4161,-2.4379,-2.4442,-2.4058,-2.4057,-2.4056,-2.4055,-2.4054,-2.377,-2.3842,-2.3894,-2.4076,-2.4215,-2.4256,-2.4422,-2.443,-2.4441,-2.4509,-2.4578,-2.4576,-2.4577,-2.4541,-2.4542,-2.4543,-2.4543,-2.4544,-2.4545,-2.3991,-2.4047,-2.4183,-2.4308,-2.4388,-2.4497,-2.4584,-2.4666,-2.4759,-2.4753,-2.4753,-2.4727,-2.4397,-2.4314,-2.4559,-2.4556,-2.4554,-2.4553,-2.4552,-2.4368,-2.4283,-2.4493,-2.4574,-2.4721,-2.4859,-2.4866,-2.5031,-2.51,-2.5182,-2.514,-2.4894,-2.4877,-2.4851,-2.4783,-2.5134,-2.5134,-2.5134,-2.5135,-2.4565,-2.4555,-2.477,-2.4899,-2.5026,-2.5053,-2.5294,-2.5364,-2.5424,-2.5469,-2.5419,-2.5329,-2.5302,-2.5301,-2.5265,-2.5202,-2.5652,-2.5653,-2.5653,-2.4797,-2.48,-2.5001,-2.5054,-2.5169,-2.5269,-2.5496,-2.5648,-2.5699,-2.5675,-2.5504,-2.5482,-2.5337,-2.5288,-2.5261,-2.5206,-2.509,0,0]},{"header":{"parameterUnit":"m.s-1","parameterCategory":1,"la1":30.2992,"la2":30.254,"lo1":-89.0895,"lo2":-89.0443,"dy":0.0025,"dx":0.0025,"nx":19,"ny":19,"refTime":"2026-04-20T09:00:00:Z","depth":0,"parameterNumber":3,"parameterNumberName":"V-component_of_WINDS"},"data":[0,0,0,-1.717,-1.717,-1.7153,-1.7153,-1.713,-1.713,0,0,0,0,0,0,0,0,0,0,0,-1.7176,-1.7176,-1.717,-1.717,-1.7153,-1.7153,-1.713,-1.713,0,0,0,0,0,0,0,0,0,0,0,-1.7176,-1.7176,-1.7176,-1.717,-1.7153,-1.7153,-1.713,-1.7143,0,0,0,0,0,0,0,0,0,0,-1.716,-1.7166,-1.7176,-1.7176,-1.717,-1.7153,-1.7153,-1.7143,-1.7142,-1.7137,0,-1.7135,0,-1.7132,-1.7128,-1.7128,0,0,0,-1.7169,-1.7167,-1.7162,-1.7176,-1.717,-1.7153,-1.716,-1.7143,-1.7141,-1.7136,-1.7134,-1.7133,-1.7131,-1.7128,-1.7128,-1.7105,-1.7105,0,0,-1.717,-1.7173,-1.7163,-1.7161,-1.7165,-1.7161,-1.716,-1.7142,-1.714,-1.7134,-1.7133,-1.7131,-1.7128,-1.7128,-1.7106,-1.7105,0,0,0,-1.7173,-1.7174,-1.7169,-1.7162,-1.7159,-1.716,-1.7159,-1.7141,-1.7139,-1.7133,-1.7131,-1.7128,-1.7127,-1.7106,-1.7105,-1.7105,0,0,0,-1.7174,-1.7176,-1.7169,-1.7171,-1.7159,-1.715,-1.7159,-1.714,-1.7138,-1.7131,-1.7128,-1.7127,-1.7106,-1.7106,-1.7105,-1.7104,0,0,0,-1.7177,-1.7176,-1.7174,-1.7171,-1.7164,-1.715,-1.7147,-1.714,-1.7137,-1.7128,-1.7127,-1.7106,-1.7106,-1.7105,-1.7105,-1.7099,0,0,0,-1.7181,-1.7174,-1.7174,-1.7165,-1.7164,-1.715,-1.7147,-1.7137,-1.7129,-1.7128,-1.7106,-1.7105,-1.7105,-1.7105,-1.7099,-1.7095,-1.7093,0,0,-1.7174,-1.7173,-1.7168,-1.7167,-1.7154,-1.7153,-1.7139,-1.7129,-1.7124,-1.7112,-1.7111,-1.7105,-1.7105,-1.7099,-1.7084,-1.7083,0,0,0,-1.7166,-1.7163,-1.7158,-1.7151,-1.7143,-1.7136,-1.7127,-1.7123,-1.7112,-1.7119,-1.7101,-1.7101,-1.7097,-1.7095,-1.7094,-1.709,-1.7105,-1.7105,-1.7105,-1.7161,-1.7156,-1.7147,-1.7139,-1.7132,-1.7123,-1.7116,-1.7108,-1.7106,-1.7102,-1.7098,-1.709,-1.7087,-1.7086,-1.7082,-1.7095,-1.7095,-1.7095,-1.7095,-1.715,-1.7144,-1.7139,-1.7129,-1.7123,-1.7113,-1.7103,-1.7101,-1.709,-1.7092,-1.7089,-1.7091,-1.7085,-1.7082,-1.7095,-1.7095,-1.7095,-1.7095,-1.7095,-1.7146,-1.7142,-1.7137,-1.7125,-1.7116,-1.7108,-1.7098,-1.7093,-1.7088,-1.7085,-1.708,-1.708,-1.7079,-1.7083,-1.7083,-1.7083,-1.7083,-1.7083,-1.7083,-1.7144,-1.7138,-1.7131,-1.7121,-1.7115,-1.7106,-1.7095,-1.7088,-1.708,-1.7077,-1.7077,-1.7074,-1.7086,-1.7089,-1.7082,-1.7082,-1.7082,-1.7082,-1.7082,-1.7135,-1.7136,-1.7124,-1.7118,-1.7105,-1.7096,-1.7089,-1.7075,-1.7069,-1.7064,-1.7061,-1.7071,-1.707,-1.707,-1.7073,-1.7063,-1.7063,-1.7063,-1.7063,-1.7131,-1.713,-1.7117,-1.7107,-1.7097,-1.7089,-1.7074,-1.7065,-1.7055,-1.705,-1.7051,-1.7053,-1.7054,-1.7053,-1.7054,-1.7056,-1.7041,-1.7041,-1.7041,-1.7125,-1.7123,-1.7112,-1.7103,-1.7092,-1.7082,-1.7067,-1.7055,-1.7043,-1.704,-1.7046,-1.7047,-1.7051,-1.7053,-1.7051,-1.7053,-1.7057,0,0]}]]